Radiation Dose at Monitoring Post of Fukushima Daini Nuclear Power Station
Date,Time,MP-1(microSv/h),MP-2(microSv/h),MP-3(microSv/h),MP-4(microSv/h),MP-5(microSv/h),MP-6(microSv/h),MP-7(microSv/h),Wind Direction,Wind Velocity(m/s),Rain
2018/01/13,00:00,0.342,0.206,0.343,0.322,0.304,0.170,0.102,north,2.3,No
2018/01/13,00:10,0.341,0.205,0.345,0.323,0.306,0.170,0.101,north,1.8,No
2018/01/13,00:20,0.341,0.206,0.345,0.322,0.306,0.170,0.103,north-northeast,1.1,No
2018/01/13,00:30,0.341,0.206,0.344,0.321,0.304,0.170,0.103,east-northeast,0.6,No
2018/01/13,00:40,0.342,0.206,0.342,0.322,0.305,0.170,0.101,east-northeast,0.8,No
2018/01/13,00:50,0.341,0.206,0.345,0.321,0.304,0.170,0.101,east,1.1,No
2018/01/13,01:00,0.341,0.206,0.343,0.322,0.305,0.170,0.101,-,CALM,No
2018/01/13,01:10,0.341,0.206,0.342,0.322,0.304,0.170,0.103,-,CALM,No
2018/01/13,01:20,0.341,0.205,0.342,0.321,0.304,0.170,0.103,north,1.1,No
2018/01/13,01:30,0.341,0.205,0.343,0.322,0.305,0.170,0.102,north-northwest,2.3,No
2018/01/13,01:40,0.340,0.205,0.343,0.321,0.305,0.171,0.101,north-northwest,2.7,No
2018/01/13,01:50,0.341,0.205,0.343,0.323,0.305,0.170,0.101,north-northwest,3.5,No
2018/01/13,02:00,0.342,0.206,0.343,0.321,0.305,0.170,0.102,northwest,3.1,No
2018/01/13,02:10,0.341,0.206,0.342,0.322,0.305,0.169,0.101,northwest,3.1,No
2018/01/13,02:20,0.341,0.206,0.342,0.322,0.304,0.170,0.102,north-northwest,4.0,No
2018/01/13,02:30,0.339,0.206,0.342,0.322,0.304,0.169,0.101,north-northwest,4.3,No
2018/01/13,02:40,0.340,0.206,0.342,0.321,0.303,0.170,0.101,northwest,3.4,No
2018/01/13,02:50,0.341,0.206,0.344,0.322,0.305,0.170,0.102,northwest,2.9,No
2018/01/13,03:00,0.341,0.205,0.343,0.321,0.305,0.169,0.101,west-northwest,2.1,No
2018/01/13,03:10,0.341,0.205,0.342,0.321,0.303,0.170,0.102,west-northwest,1.4,No
2018/01/13,03:20,0.341,0.205,0.343,0.322,0.304,0.170,0.102,west-northwest,2.1,No
2018/01/13,03:30,0.340,0.207,0.342,0.321,0.303,0.170,0.103,northwest,2.3,No
2018/01/13,03:40,0.339,0.206,0.342,0.322,0.305,0.170,0.101,northwest,1.2,No
2018/01/13,03:50,0.341,0.205,0.342,0.322,0.306,0.169,0.102,west-northwest,0.9,No
2018/01/13,04:00,0.338,0.205,0.343,0.322,0.304,0.170,0.101,north-northwest,1.1,No
2018/01/13,04:10,0.341,0.206,0.342,0.321,0.304,0.169,0.102,northwest,1.1,No
2018/01/13,04:20,0.341,0.206,0.344,0.321,0.305,0.169,0.103,west-northwest,1.1,No
2018/01/13,04:30,0.340,0.205,0.344,0.322,0.306,0.170,0.102,northwest,1.8,No
2018/01/13,04:40,0.340,0.205,0.342,0.320,0.304,0.170,0.102,west-northwest,3.5,No
2018/01/13,04:50,0.339,0.206,0.342,0.322,0.305,0.170,0.101,northwest,2.8,No
2018/01/13,05:00,0.339,0.205,0.342,0.322,0.304,0.169,0.102,northwest,2.6,No
2018/01/13,05:10,0.340,0.206,0.342,0.321,0.303,0.170,0.101,west-northwest,2.1,No
2018/01/13,05:20,0.340,0.207,0.342,0.321,0.303,0.171,0.102,west-northwest,2.3,No
2018/01/13,05:30,0.341,0.205,0.342,0.321,0.303,0.169,0.102,west-northwest,2.7,No
2018/01/13,05:40,0.340,0.205,0.342,0.321,0.303,0.170,0.102,west-northwest,3.4,No
2018/01/13,05:50,0.341,0.206,0.342,0.320,0.303,0.170,0.102,west-northwest,3.2,No
2018/01/13,06:00,0.339,0.205,0.343,0.321,0.303,0.170,0.102,west-northwest,3.1,No
2018/01/13,06:10,0.339,0.206,0.342,0.320,0.304,0.170,0.102,west-northwest,2.9,No
2018/01/13,06:20,0.339,0.206,0.342,0.320,0.304,0.169,0.101,northwest,3.2,No
2018/01/13,06:30,0.340,0.206,0.342,0.322,0.303,0.170,0.101,northwest,3.8,No
2018/01/13,06:40,0.341,0.207,0.342,0.321,0.304,0.170,0.102,northwest,3.1,No
2018/01/13,06:50,0.340,0.204,0.341,0.321,0.304,0.169,0.101,west-northwest,3.1,No
2018/01/13,07:00,0.340,0.206,0.343,0.320,0.304,0.169,0.102,northwest,2.1,No
2018/01/13,07:10,0.341,0.206,0.342,0.321,0.304,0.170,0.101,north-northwest,1.5,No
2018/01/13,07:20,0.339,0.205,0.342,0.321,0.303,0.169,0.102,northwest,2.2,No
2018/01/13,07:30,0.340,0.205,0.342,0.321,0.303,0.169,0.102,northwest,2.2,No
2018/01/13,07:40,0.339,0.205,0.341,0.319,0.304,0.168,0.101,northwest,2.5,No
2018/01/13,07:50,0.339,0.205,0.342,0.320,0.302,0.169,0.101,north-northwest,1.4,No
2018/01/13,08:00,0.339,0.205,0.342,0.320,0.303,0.169,0.101,north-northwest,1.3,No
2018/01/13,08:10,0.338,0.206,0.341,0.321,0.304,0.169,0.101,north-northwest,1.1,No
2018/01/13,08:20,0.340,0.205,0.341,0.319,0.303,0.169,0.101,north-northwest,0.9,No
2018/01/13,08:30,0.338,0.206,0.343,0.320,0.303,0.170,0.101,north-northwest,1.0,No
2018/01/13,08:40,0.338,0.205,0.341,0.320,0.303,0.169,0.101,north-northwest,1.1,No
2018/01/13,08:50,0.340,0.204,0.342,0.321,0.304,0.169,0.101,northwest,0.6,No
2018/01/13,09:00,0.339,0.206,0.341,0.319,0.304,0.168,0.102,-,CALM,No
2018/01/13,09:10,0.338,0.205,0.342,0.320,0.305,0.169,0.101,-,CALM,No
2018/01/13,09:20,0.339,0.206,0.342,0.320,0.305,0.169,0.102,-,CALM,No
2018/01/13,09:30,0.339,0.204,0.342,0.320,0.304,0.169,0.101,-,CALM,No
2018/01/13,09:40,0.340,0.204,0.342,0.320,0.305,0.169,0.101,east,1.2,No
2018/01/13,09:50,0.339,0.204,0.341,0.320,0.304,0.170,0.102,northeast,1.3,No
2018/01/13,10:00,0.339,0.204,0.341,0.318,0.303,0.169,0.102,east-northeast,1.8,No
2018/01/13,10:10,0.340,0.205,0.342,0.319,0.304,0.169,0.101,northeast,3.0,No
2018/01/13,10:20,0.339,0.205,0.342,0.323,0.304,0.169,0.102,northeast,3.2,No
2018/01/13,10:30,0.338,0.205,0.341,0.321,0.302,0.170,0.102,northeast,3.5,No
2018/01/13,10:40,0.337,0.205,0.343,0.320,0.305,0.170,0.101,northeast,3.3,No
2018/01/13,10:50,0.338,0.205,0.342,0.321,0.303,0.169,0.102,northeast,2.6,No
2018/01/13,11:00,0.338,0.205,0.341,0.322,0.303,0.170,0.101,northeast,3.6,No
2018/01/13,11:10,0.337,0.205,0.341,0.320,0.304,0.169,0.101,northeast,3.3,No
2018/01/13,11:20,0.339,0.204,0.341,0.321,0.303,0.171,0.101,north-northeast,2.3,No
2018/01/13,11:30,0.338,0.205,0.342,0.321,0.304,0.168,0.101,north-northeast,2.3,No
2018/01/13,11:40,0.339,0.205,0.342,0.320,0.304,0.170,0.101,northeast,2.7,No
2018/01/13,11:50,0.338,0.203,0.340,0.321,0.304,0.170,0.101,east-northeast,2.6,No
2018/01/13,12:00,0.336,0.204,0.341,0.322,0.304,0.169,0.101,northeast,3.0,No
2018/01/13,12:10,0.337,0.205,0.342,0.319,0.305,0.169,0.101,east-northeast,2.7,No
2018/01/13,12:20,0.338,0.205,0.340,0.322,0.304,0.170,0.102,northeast,3.0,No
2018/01/13,12:30,0.338,0.205,0.340,0.321,0.305,0.169,0.101,east-northeast,2.7,No
2018/01/13,12:40,0.340,0.206,0.341,0.320,0.304,0.170,0.101,east,2.0,No
2018/01/13,12:50,0.338,0.206,0.340,0.321,0.306,0.170,0.101,northeast,2.3,No
2018/01/13,13:00,0.338,0.206,0.341,0.320,0.305,0.169,0.100,east,2.4,No
2018/01/13,13:10,0.340,0.206,0.343,0.319,0.305,0.169,0.101,east,2.3,No
2018/01/13,13:20,0.339,0.205,0.340,0.320,0.305,0.171,0.102,east,1.2,No
2018/01/13,13:30,0.340,0.205,0.342,0.320,0.306,0.170,0.101,east-southeast,1.7,No
2018/01/13,13:40,0.338,0.205,0.341,0.322,0.306,0.170,0.102,east-southeast,0.7,No
2018/01/13,13:50,0.339,0.205,0.340,0.322,0.304,0.171,0.101,east-southeast,1.1,No
2018/01/13,14:00,0.340,0.205,0.342,0.321,0.304,0.170,0.101,east-southeast,1.3,No
2018/01/13,14:10,0.340,0.205,0.342,0.321,0.303,0.169,0.101,southeast,1.6,No
2018/01/13,14:20,0.338,0.204,0.342,0.321,0.304,0.170,0.101,south-southeast,0.9,No
2018/01/13,14:30,0.339,0.205,0.342,0.321,0.305,0.171,0.102,south,1.6,No
2018/01/13,14:40,0.340,0.205,0.342,0.322,0.303,0.170,0.101,southeast,1.2,No
2018/01/13,14:50,0.340,0.206,0.342,0.322,0.305,0.170,0.102,southeast,1.5,No
2018/01/13,15:00,0.339,0.206,0.342,0.322,0.306,0.170,0.101,southeast,1.1,No
2018/01/13,15:10,0.340,0.204,0.343,0.321,0.305,0.169,0.102,south-southeast,1.2,No
2018/01/13,15:20,0.341,0.205,0.342,0.322,0.305,0.169,0.102,-,CALM,No
2018/01/13,15:30,0.340,0.206,0.342,0.322,0.307,0.170,0.101,east-northeast,1.2,No
2018/01/13,15:40,0.339,0.206,0.342,0.322,0.305,0.170,0.101,northeast,0.7,No
2018/01/13,15:50,0.340,0.205,0.342,0.322,0.304,0.170,0.101,east,1.0,No
2018/01/13,16:00,0.340,0.205,0.342,0.323,0.306,0.169,0.101,-,CALM,No
2018/01/13,16:10,0.340,0.206,0.343,0.322,0.305,0.170,0.102,north-northeast,0.6,No
2018/01/13,16:20,0.339,0.206,0.342,0.323,0.305,0.169,0.102,north-northeast,0.6,No
2018/01/13,16:30,0.339,0.206,0.342,0.322,0.305,0.170,0.102,-,CALM,No
2018/01/13,16:40,0.340,0.205,0.343,0.322,0.305,0.170,0.102,-,CALM,No
2018/01/13,16:50,0.340,0.205,0.343,0.323,0.304,0.170,0.102,-,CALM,No
2018/01/13,17:00,0.341,0.205,0.341,0.321,0.305,0.170,0.101,-,CALM,No
2018/01/13,17:10,0.339,0.205,0.342,0.321,0.304,0.170,0.102,north-northeast,0.9,No
2018/01/13,17:20,0.339,0.206,0.342,0.322,0.305,0.170,0.102,north,1.0,No
2018/01/13,17:30,0.340,0.206,0.342,0.322,0.305,0.170,0.101,north,0.6,No
2018/01/13,17:40,0.339,0.205,0.343,0.322,0.304,0.170,0.101,north-northwest,1.6,No
2018/01/13,17:50,0.342,0.206,0.342,0.322,0.305,0.171,0.101,north,2.9,No
2018/01/13,18:00,0.341,0.206,0.342,0.323,0.305,0.170,0.101,north-northwest,3.0,No
2018/01/13,18:10,0.341,0.205,0.341,0.323,0.305,0.170,0.101,north-northwest,2.1,No
2018/01/13,18:20,0.340,0.206,0.343,0.322,0.304,0.171,0.102,north,4.8,No
2018/01/13,18:30,0.340,0.205,0.344,0.323,0.304,0.170,0.101,north-northwest,4.1,No
2018/01/13,18:40,0.340,0.207,0.342,0.322,0.305,0.171,0.101,north-northwest,2.7,No
2018/01/13,18:50,0.340,0.205,0.341,0.323,0.304,0.170,0.101,north,6.2,No
2018/01/13,19:00,0.339,0.206,0.342,0.322,0.305,0.170,0.102,north,4.4,No
2018/01/13,19:10,0.340,0.205,0.342,0.321,0.304,0.171,0.101,north-northwest,3.4,No
2018/01/13,19:20,0.341,0.205,0.343,0.322,0.304,0.169,0.102,north-northwest,5.4,No
2018/01/13,19:30,0.342,0.206,0.341,0.322,0.304,0.169,0.102,north-northwest,4.5,No
2018/01/13,19:40,0.341,0.207,0.343,0.322,0.304,0.170,0.102,north,6.4,No
2018/01/13,19:50,0.339,0.206,0.343,0.322,0.304,0.171,0.102,north-northwest,6.2,No
2018/01/13,20:00,0.340,0.205,0.343,0.322,0.303,0.170,0.101,north-northwest,6.7,No
2018/01/13,20:10,0.340,0.205,0.344,0.322,0.304,0.170,0.102,north,7.3,No
2018/01/13,20:20,0.340,0.207,0.342,0.323,0.304,0.169,0.102,north,8.4,No
2018/01/13,20:30,0.340,0.206,0.343,0.323,0.304,0.170,0.102,north-northwest,7.6,No
2018/01/13,20:40,0.340,0.206,0.343,0.321,0.305,0.171,0.103,north-northwest,7.7,No
2018/01/13,20:50,0.339,0.207,0.343,0.322,0.305,0.170,0.103,north-northwest,7.3,No
2018/01/13,21:00,0.342,0.206,0.345,0.324,0.306,0.170,0.101,north,6.7,No
2018/01/13,21:10,0.342,0.206,0.342,0.323,0.305,0.170,0.102,north-northwest,5.0,No
2018/01/13,21:20,0.341,0.207,0.342,0.323,0.304,0.170,0.102,north-northwest,6.2,No
2018/01/13,21:30,0.340,0.206,0.344,0.322,0.305,0.170,0.101,north-northwest,6.3,No
2018/01/13,21:40,0.341,0.205,0.343,0.323,0.306,0.170,0.102,north-northwest,5.4,No
2018/01/13,21:50,0.340,0.206,0.344,0.323,0.305,0.170,0.102,northwest,7.4,Yes
2018/01/13,22:00,0.341,0.206,0.344,0.323,0.304,0.170,0.102,northwest,7.8,Yes
2018/01/13,22:10,0.341,0.207,0.344,0.324,0.304,0.171,0.103,northwest,7.9,Yes
2018/01/13,22:20,0.342,0.208,0.345,0.324,0.308,0.173,0.105,northwest,7.3,Yes
2018/01/13,22:30,0.344,0.209,0.345,0.325,0.309,0.175,0.107,northwest,6.5,Yes
2018/01/13,22:40,0.343,0.210,0.344,0.326,0.309,0.175,0.106,northwest,5.5,No
2018/01/13,22:50,0.342,0.209,0.346,0.325,0.308,0.175,0.107,northwest,4.8,No
2018/01/13,23:00,0.343,0.207,0.344,0.323,0.307,0.175,0.106,west-northwest,4.6,No
2018/01/13,23:10,0.341,0.208,0.344,0.324,0.308,0.174,0.104,west-northwest,4.8,No
2018/01/13,23:20,0.341,0.207,0.343,0.323,0.306,0.173,0.104,northwest,5.0,No
2018/01/13,23:30,0.341,0.207,0.344,0.323,0.305,0.172,0.104,northwest,6.8,No
2018/01/13,23:40,0.341,0.207,0.343,0.322,0.305,0.172,0.103,west-northwest,6.5,No
2018/01/13,23:50,0.341,0.206,0.343,0.322,0.305,0.172,0.103,west-northwest,7.8,No
